Location: Abbey Hill
(34.0751°N, 84.0688°W)
Time: 11:21:19
(UTC+00:00)

Envisat - Pass Details

Date: 29 September 2021
Orbit: 764 x 766 km, 98.2° (Epoch: 20 October)

Event Time Altitude Azimuth Distance (km) Brightness Sun altitude
Rises 09:52:16 0° 26° (NNE) 3,233 6.8 -20.9°
Reaches altitude 10° 09:54:56 10° 39° (NE) 2,303 6.2 -20.3°
Maximum altitude 09:59:11 27° 96° (E) 1,446 5.2 -19.5°
Drops below altitude 10° 10:03:25 10° 153° (SSE) 2,291 5.7 -18.6°
Sets 10:06:02 0° 166° (SSE) 3,212 6.3 -18.1°
